| time (UTC) | temp C | wind direction | speed KPH | gust KPH | rain 1hr cm | rain 24hr cm | rain mn cm | humidity % | barometer mb |
| 20260506134303 | 13 | 176 | 6.4 | 19.3 | 0.00 | 0.00 | 0.00 | 63 | 1009.6 |
| 20260506133304 | 13 | 218 | 4.8 | 19.3 | 0.00 | 0.00 | 0.00 | 64 | 1009.7 |
| 20260506130303 | 13 | 86 | 4.8 | 11.3 | 0.00 | 0.00 | 0.00 | 62 | 1009.6 |
| 20260506124804 | 13 | 72 | 3.2 | 14.5 | 0.00 | 0.00 | 0.00 | 59 | 1009.6 |
| 20260506124304 | 13 | 60 | 8.0 | 14.5 | 0.00 | 0.00 | 0.00 | 56 | 1009.6 |
| 20260506123804 | 13 | 71 | 4.8 | 16.1 | 0.00 | 0.00 | 0.00 | 55 | 1009.6 |
| 20260506123304 | 13 | 51 | 6.4 | 16.1 | 0.00 | 0.00 | 0.00 | 54 | 1009.6 |
| 20260506121803 | 13 | 69 | 3.2 | 19.3 | 0.00 | 0.00 | 0.00 | 54 | 1009.5 |
| 20260506120803 | 13 | 68 | 9.7 | 22.5 | 0.00 | 0.00 | 0.00 | 52 | 1009.5 |
| 20260506114804 | 13 | 83 | 8.0 | 19.3 | 0.00 | 0.00 | 0.00 | 52 | 1009.4 |
| 20260506113804 | 13 | 74 | 4.8 | 25.7 | 0.00 | 0.00 | 0.00 | 53 | 1009.4 |
| 20260506113303 | 13 | 59 | 9.7 | 25.7 | 0.00 | 0.00 | 0.00 | 53 | 1009.4 |
| 20260506110303 | 13 | 89 | 12.9 | 24.1 | 0.00 | 0.00 | 0.00 | 54 | 1009.3 |
| 20260506104803 | 12 | 79 | 8.0 | 20.9 | 0.00 | 0.00 | 0.00 | 58 | 1009.2 |
| 20260506103804 | 12 | 58 | 8.0 | 22.5 | 0.00 | 0.00 | 0.00 | 58 | 1009.3 |
| 20260506101304 | 12 | 72 | 4.8 | 19.3 | 0.00 | 0.00 | 0.00 | 62 | 1009.2 |
| 20260506094803 | 11 | 108 | 6.4 | 14.5 | 0.00 | 0.00 | 0.00 | 65 | 1009.2 |
| 20260506093804 | 11 | 88 | 6.4 | 14.5 | 0.00 | 0.00 | 0.00 | 65 | 1009.1 |
| 20260506093303 | 11 | 69 | 4.8 | 14.5 | 0.00 | 0.00 | 0.00 | 63 | 1009.1 |
| 20260506091804 | 12 | 79 | 4.8 | 12.9 | 0.00 | 0.00 | 0.00 | 64 | 1009.0 |
| 20260506091304 | 11 | 79 | 6.4 | 12.9 | 0.00 | 0.00 | 0.00 | 65 | 1009.0 |
| 20260506090303 | 11 | 80 | 8.0 | 19.3 | 0.00 | 0.00 | 0.00 | 65 | 1009.0 |
| 20260506084303 | 11 | 66 | 6.4 | 20.9 | 0.00 | 0.00 | 0.00 | 65 | 1008.9 |
| 20260506081804 | 11 | 66 | 12.9 | 24.1 | 0.00 | 0.00 | 0.00 | 64 | 1008.9 |
| 20260506081304 | 11 | 78 | 4.8 | 19.3 | 0.00 | 0.00 | 0.00 | 65 | 1008.8 |
| 20260506080814 | 11 | 70 | 8.0 | 19.3 | 0.00 | 0.00 | 0.00 | 64 | 1008.8 |
| 20260506071803 | 11 | 56 | 4.8 | 19.3 | 0.00 | 0.00 | 0.00 | 75 | 1008.6 |
| 20260506071304 | 11 | 81 | 4.8 | 19.3 | 0.00 | 0.00 | 0.00 | 77 | 1008.6 |
| 20260506070803 | 11 | 62 | 9.7 | 19.3 | 0.00 | 0.00 | 0.00 | 77 | 1008.6 |
| 20260506070303 | 11 | 67 | 3.2 | 11.3 | 0.00 | 0.00 | 0.00 | 79 | 1008.5 |
| 20260506061804 | 10 | 52 | 1.6 | 4.8 | 0.00 | 0.00 | 0.00 | 84 | 1008.5 |
| 20260506061303 | 10 | 145 | 1.6 | 9.7 | 0.00 | 0.00 | 0.00 | 85 | 1008.5 |
| 20260506060305 | 9 | 104 | 1.6 | 4.8 | 0.00 | 0.00 | 0.00 | 87 | 1008.5 |
| 20260506050315 | 8 | 96 | 1.6 | 4.8 | 0.00 | 0.00 | 0.00 | 88 | 1008.4 |
| 20260506044303 | 8 | 221 | 3.2 | 4.8 | 0.00 | 0.00 | 0.00 | 87 | 1008.4 |
| 20260506043803 | 8 | 46 | 1.6 | 4.8 | 0.00 | 0.00 | 0.00 | 87 | 1008.4 |
| 20260506041803 | 8 | 136 | 1.6 | 4.8 | 0.00 | 0.00 | 0.00 | 87 | 1008.4 |
| 20260506041303 | 8 | 184 | 1.6 | 4.8 | 0.00 | 0.00 | 0.00 | 87 | 1008.4 |
| 20260506040804 | 8 | 109 | 1.6 | 4.8 | 0.00 | 0.00 | 0.00 | 87 | 1008.4 |
| 20260506040303 | 8 | 256 | 1.6 | 3.2 | 0.00 | 0.00 | 0.00 | 86 | 1008.4 |
| 20260506034803 | 8 | 107 | 1.6 | 4.8 | 0.00 | 0.00 | 0.00 | 86 | 1008.4 |
| 20260506033803 | 8 | 262 | 1.6 | 4.8 | 0.00 | 0.00 | 0.00 | 86 | 1008.4 |
| 20260506030303 | 8 | 359 | 1.6 | 4.8 | 0.00 | 0.00 | 0.00 | 85 | 1008.7 |
| 20260506024804 | 8 | 352 | 1.6 | 4.8 | 0.00 | 0.00 | 0.00 | 84 | 1008.7 |
| 20260506024303 | 8 | 330 | 1.6 | 4.8 | 0.00 | 0.00 | 0.00 | 84 | 1008.8 |
| 20260506021804 | 9 | 57 | 1.6 | 4.8 | 0.00 | 0.00 | 0.00 | 84 | 1008.8 |
| 20260506014304 | 9 | 180 | 1.6 | 4.8 | 0.00 | 0.00 | 0.00 | 83 | 1009.0 |
| 20260506013804 | 9 | 357 | 1.6 | 4.8 | 0.00 | 0.00 | 0.00 | 83 | 1009.0 |
| 20260506010803 | 10 | 88 | 1.6 | 8.0 | 0.00 | 0.00 | 0.00 | 82 | 1009.2 |
| 20260506010304 | 10 | 59 | 3.2 | 8.0 | 0.00 | 0.00 | 0.00 | 82 | 1009.2 |
| 20260506004804 | 10 | 65 | 1.6 | 4.8 | 0.00 | 0.00 | 0.00 | 82 | 1009.3 |
| 20260506004303 | 10 | 85 | 1.6 | 4.8 | 0.00 | 0.00 | 0.00 | 82 | 1009.3 |
| 20260506003804 | 10 | 107 | 1.6 | 4.8 | 0.00 | 0.00 | 0.00 | 82 | 1009.4 |
| 20260506003304 | 10 | 68 | 1.6 | 4.8 | 0.00 | 0.00 | 0.00 | 82 | 1009.5 |
| 20260506001803 | 10 | 82 | 3.2 | 4.8 | 0.00 | 0.00 | 0.00 | 81 | 1009.7 |
| 20260506001303 | 10 | 87 | 1.6 | 4.8 | 0.00 | 0.00 | 0.00 | 81 | 1009.7 |
| 20260506000803 | 10 | 168 | 3.2 | 4.8 | 0.00 | 0.00 | 0.00 | 81 | 1009.8 |
| 20260505233804 | 10 | 85 | 3.2 | 16.1 | 0.00 | 0.00 | 0.00 | 81 | 1009.9 |
| 20260505233304 | 10 | 72 | 4.8 | 16.1 | 0.00 | 0.00 | 0.00 | 81 | 1009.8 |
| 20260505230804 | 10 | 112 | 3.2 | 12.9 | 0.00 | 0.00 | 0.00 | 81 | 1009.9 |
| 20260505224803 | 10 | 110 | 3.2 | 9.7 | 0.00 | 0.00 | 0.00 | 81 | 1010.1 |
| 20260505224303 | 10 | 92 | 3.2 | 11.3 | 0.00 | 0.00 | 0.00 | 80 | 1010.1 |
| 20260505223304 | 10 | 59 | 3.2 | 11.3 | 0.00 | 0.00 | 0.00 | 80 | 1010.2 |
| 20260505221804 | 10 | 66 | 3.2 | 9.7 | 0.00 | 0.00 | 0.00 | 80 | 1010.3 |
| 20260505221303 | 10 | 180 | 3.2 | 4.8 | 0.00 | 0.00 | 0.00 | 80 | 1010.3 |
| 20260505220810 | 10 | 71 | 3.2 | 8.0 | 0.00 | 0.00 | 0.00 | 79 | 1010.4 |
| 20260505220304 | 10 | 77 | 3.2 | 8.0 | 0.00 | 0.00 | 0.00 | 80 | 1010.4 |
| 20260505214303 | 10 | 179 | 3.2 | 8.0 | 0.00 | 0.00 | 0.00 | 79 | 1010.5 |
| 20260505213304 | 10 | 143 | 4.8 | 9.7 | 0.00 | 0.00 | 0.00 | 79 | 1010.6 |
| 20260505211304 | 10 | 76 | 1.6 | 8.0 | 0.00 | 0.00 | 0.00 | 80 | 1010.6 |
| 20260505204804 | 10 | 259 | 1.6 | 8.0 | 0.00 | 0.00 | 0.00 | 80 | 1010.7 |
| 20260505204303 | 10 | 63 | 3.2 | 19.3 | 0.00 | 0.00 | 0.00 | 80 | 1010.8 |
| 20260505203804 | 10 | 117 | 4.8 | 19.3 | 0.00 | 0.00 | 0.00 | 80 | 1010.8 |
| 20260505194304 | 10 | 172 | 4.8 | 19.3 | 0.00 | 0.00 | 0.00 | 80 | 1010.7 |
| 20260505191303 | 10 | 203 | 4.8 | 14.5 | 0.00 | 0.00 | 0.00 | 80 | 1010.6 |
| 20260505190803 | 10 | 87 | 4.8 | 14.5 | 0.00 | 0.00 | 0.00 | 80 | 1010.5 |
| 20260505190303 | 10 | 178 | 4.8 | 14.5 | 0.00 | 0.00 | 0.00 | 80 | 1010.5 |
| 20260505184306 | 10 | 91 | 3.2 | 11.3 | 0.00 | 0.00 | 0.00 | 79 | 1010.4 |
| 20260505181811 | 10 | 236 | 4.8 | 14.5 | 0.00 | 0.00 | 0.00 | 79 | 1010.3 |
| 20260505180303 | 10 | 85 | 8.0 | 14.5 | 0.00 | 0.00 | 0.00 | 79 | 1010.4 |
| 20260505173305 | 11 | 67 | 8.0 | 14.5 | 0.00 | 0.00 | 0.00 | 78 | 1010.5 |
| 20260505171804 | 11 | 59 | 6.4 | 12.9 | 0.00 | 0.00 | 0.00 | 78 | 1010.5 |
| 20260505171305 | 11 | 101 | 4.8 | 14.5 | 0.00 | 0.00 | 0.00 | 78 | 1010.5 |
| 20260505170803 | 11 | 98 | 4.8 | 19.3 | 0.00 | 0.00 | 0.00 | 78 | 1010.6 |
| 20260505164303 | 11 | 105 | 3.2 | 19.3 | 0.00 | 0.00 | 0.00 | 77 | 1010.6 |
| 20260505163304 | 11 | 105 | 3.2 | 19.3 | 0.00 | 0.00 | 0.00 | 76 | 1010.6 |
| 20260505161304 | 11 | 87 | 3.2 | 9.7 | 0.00 | 0.00 | 0.00 | 76 | 1010.6 |
| 20260505160804 | 11 | 87 | 4.8 | 11.3 | 0.00 | 0.00 | 0.00 | 76 | 1010.6 |
| 20260505160303 | 11 | 184 | 1.6 | 14.5 | 0.00 | 0.00 | 0.00 | 77 | 1010.7 |
| 20260505140304 | 11 | 69 | 1.6 | 11.3 | 0.00 | 0.00 | 0.00 | 77 | 1011.2 |